Blattenbach Aussen Messungen

Zurück zum Überblick

Zeitpunkt Temperatur Temperatur Kabelsensor Luftfeuchte
26.03.2019 02:52:02 3,8 C 7,6 C 76,0%
26.03.2019 02:45:00 3,8 C 7,6 C 76,0%
26.03.2019 02:37:59 3,9 C 7,6 C 76,0%
26.03.2019 02:31:02 3,9 C 7,6 C 76,0%
26.03.2019 02:24:03 3,9 C 7,7 C 76,0%
26.03.2019 02:17:02 3,8 C 7,7 C 75,0%
26.03.2019 02:10:02 3,8 C 7,7 C 76,0%
26.03.2019 02:03:02 3,8 C 7,7 C 76,0%
26.03.2019 01:56:00 3,7 C 7,7 C 75,0%
26.03.2019 01:49:01 3,8 C 7,8 C 74,0%
26.03.2019 01:42:00 3,8 C 7,8 C 74,0%
26.03.2019 01:35:03 3,9 C 7,8 C 73,0%
26.03.2019 01:28:02 4,1 C 7,8 C 74,0%
26.03.2019 01:21:01 4,2 C 7,8 C 73,0%
26.03.2019 01:14:04 4,2 C 7,8 C 73,0%
26.03.2019 01:07:01 4,2 C 7,9 C 73,0%
26.03.2019 01:00:02 4,1 C 7,9 C 73,0%
26.03.2019 00:53:02 4,0 C 7,9 C 72,0%
26.03.2019 00:46:02 4,1 C 7,9 C 71,0%
26.03.2019 00:38:59 4,1 C 7,9 C 71,0%
26.03.2019 00:31:59 4,2 C 7,9 C 71,0%
26.03.2019 00:25:02 4,3 C 8,0 C 71,0%
26.03.2019 00:18:02 4,2 C 8,0 C 71,0%
26.03.2019 00:11:02 4,2 C 8,0 C 71,0%
26.03.2019 00:03:59 4,1 C 8,0 C 72,0%
25.03.2019 23:57:02 4,1 C 8,1 C 72,0%
25.03.2019 23:50:01 4,1 C 8,1 C 72,0%
25.03.2019 23:43:00 4,1 C 8,1 C 72,0%
25.03.2019 23:35:59 4,0 C 8,1 C 72,0%
25.03.2019 23:29:00 3,9 C 8,1 C 71,0%
25.03.2019 23:22:01 3,8 C 8,2 C 71,0%
25.03.2019 23:15:03 3,8 C 8,2 C 71,0%
25.03.2019 23:08:00 4,0 C 8,2 C 71,0%
25.03.2019 23:01:03 4,1 C 8,2 C 72,0%
25.03.2019 22:54:00 4,0 C 8,3 C 71,0%
25.03.2019 22:47:03 3,9 C 8,3 C 71,0%
25.03.2019 22:40:01 4,0 C 8,3 C 71,0%
25.03.2019 22:33:01 4,1 C 8,4 C 70,0%
25.03.2019 22:26:02 4,0 C 8,4 C 70,0%
25.03.2019 22:19:02 4,0 C 8,4 C 70,0%
25.03.2019 22:12:02 3,9 C 8,4 C 71,0%
25.03.2019 22:05:03 3,8 C 8,5 C 71,0%
25.03.2019 21:57:59 3,8 C 8,5 C 71,0%
25.03.2019 21:51:03 3,7 C 8,5 C 71,0%
25.03.2019 21:44:02 3,9 C 8,6 C 71,0%
25.03.2019 21:37:00 4,1 C 8,6 C 71,0%
25.03.2019 21:30:02 4,1 C 8,7 C 71,0%
25.03.2019 21:23:01 3,9 C 8,7 C 71,0%
25.03.2019 21:16:01 3,6 C 8,8 C 71,0%
25.03.2019 21:09:01 3,6 C 8,8 C 71,0%